Regional Weather Roundup
Issued by NWS Nashville, TN

Home | Current Version | Previous Version | Text Only | Print | Product List | Glossary On
Versions: 1 2 3 4 5 6 7 8 9 10 11 12 13 14 15 16 17 18 19 20 21 22 23 24 25 26 27 28 29 30 31 32 33 34 35 36 37 38 39 40 41 42 43 44 45 46 47 48 49 50
000
ASUS44 KOHX 240505
RWROHX
MIDDLE TENNESSEE HOURLY WEATHER ROUNDUP
NATIONAL WEATHER SERVICE NASHVILLE TN
1200 AM CDT THU APR 24 2014

NOTE: "FAIR" INDICATES FEW OR NO CLOUDS BELOW 12,000 FEET WITH
NO SIGNIFICANT WEATHER AND/OR OBSTRUCTIONS TO VISIBILITY.

* THESE REPORTS ARE NOT UNDER NWS QUALITY CONTROL AND MAY NOT
  REPORT WEATHER SUCH AS PRECIPITATION AND FOG.


TNZ005>011-023>034-057-059-062>066-078-080-240600
...NORTHERN MIDDLE TENNESSEE...

CITY           SKY/WX    TMP DP  RH WIND       PRES   REMARKS
CLARKSVILLE    CLEAR     52  35  52 E7        29.99F
COLUMBIA       CLEAR     46  46 100 CALM      29.98S
CROSSVILLE     CLEAR     50  31  48 NE6       30.03F
GALLATIN         N/A     53  35  50 NE3       30.02F
DICKSON        CLEAR     52  34  50 CALM      29.98F
NASHVILLE      CLEAR     53  36  52 E5        30.00F
PORTLAND       CLEAR     52  34  50 E6        30.01F
SMYRNA         CLEAR     46  41  83 CALM      30.01F
SPARTA         CLEAR     41  36  81 CALM      30.00F
$$
TNZ056-058-060-061-075>077-079-093>097-240600
...SOUTHERN MIDDLE TENNESSEE...

CITY           SKY/WX    TMP DP  RH WIND       PRES   REMARKS
FAYETTEVILLE   CLEAR     51  35  54 NE8       29.98F
LEWISBURG      CLEAR     43  39  85 CALM      29.99F
MCMINNVILLE      N/A     47  38  71 CALM      30.00F
MURFREESBORO   CLEAR     51  38  61 E3        30.00F
SHELBYVILLE    CLEAR     48  37  66 E3        30.00F
TULLAHOMA      CLEAR     54  34  47 NE5       29.99F
WINCHESTER     CLEAR     43  39  87 CALM      29.99F
$$


...KEY TO REMARKS...
VSB - VISIBILITY IN MILES
WCI - WIND CHILL INDEX
HX  - HEAT INDEX




USA.gov is the U.S. government's official web portal to all federal, state and local government web resources and services.